Change the Weather History Date:

Monday, January 21, 2013

  Actual Average Record
Temperature  
Mean Temperature 10 °F -  
Max Temperature 16 °F 27 °F 46 °F (1997)
Min Temperature 5 °F 11 °F -14 °F (1963)
Degree Days  
Heating Degree Days 54    
Moisture  
Dew Point 1 °F    
Average Humidity 67    
Maximum Humidity 85    
Minimum Humidity 41    
Precipitation  
Precipitation 0.00 in - - ()
Sea Level Pressure  
Sea Level Pressure 30.30 in    
Wind  
Wind Speed 17 mph (WNW)    
Max Wind Speed 23 mph    
Max Gust Speed 28 mph    
Visibility 9 miles    
Events Snow    
Averages and records for this station are not official NWS values.
T = Trace of Precipitation, MM = Missing Value Source: NWS Daily Summary

Daily Weather History Graph

Daily Weather History Graph

Search for Another Location

Airport or City:

Trip Planner

Search our weather history database for the weather conditions in past years. The results will help you decide how hot, cold, wet, or windy it might be!

Date:

Astronomy

Jan. 21, 2013 Rise Set
Actual Time 7:13 AM CST 5:00 PM CST
Civil Twilight 6:44 AM CST 5:30 PM CST
Nautical Twilight 6:10 AM CST 6:03 PM CST
Astronomical Twilight 5:38 AM CST 6:36 PM CST
Moon 12:40 PM CST 2:41 AM CST
Length of Visible Light 10h 46m
Length of Day
9h 47m
Waxing Gibbous, 75% of the Moon is Illuminated
Jan 21
Waxing Gibbous
Jan 26
Full
Feb 3
Last Quarter
Feb 10
New
Feb 17
First Quarter

Hourly Weather History & Observations

Time (CST) Temp. Windchill Dew Point Humidity Pressure Visibility Wind Dir Wind Speed Gust Speed Precip Events Conditions
12:56 AM 16.2 °F 2.5 °F 9.1 °F 74% 30.31 in 10.0 mi WNW 12.7 mph - 0.00 in   Scattered Clouds
1:05 AM 15.8 °F 2.1 °F 10.4 °F 79% 30.23 in 10.0 mi WNW 12.7 mph - N/A   Mostly Cloudy
1:56 AM 16.2 °F 0.3 °F 9.1 °F 74% 30.30 in 10.0 mi WNW 17.3 mph - 0.00 in Snow Light Snow
2:56 AM 16.2 °F 1.3 °F 9.1 °F 74% 30.30 in 10.0 mi West 15.0 mph - 0.00 in Snow Light Snow
3:41 AM 14.0 °F -3.0 °F 8.6 °F 79% 30.20 in 4.0 mi West 18.4 mph 21.9 mph 0.00 in Snow Light Snow
3:49 AM 12.2 °F -3.7 °F 8.6 °F 85% 30.20 in 7.0 mi West 15.0 mph - 0.00 in Snow Light Snow
3:56 AM 13.1 °F -2.6 °F 8.1 °F 80% 30.28 in 10.0 mi West 15.0 mph - 0.00 in Snow Light Snow
4:14 AM 12.2 °F -3.7 °F 8.6 °F 85% 30.20 in 9.0 mi West 15.0 mph - 0.00 in Snow Light Snow
4:30 AM 12.2 °F -5.8 °F 6.8 °F 79% 30.20 in 8.0 mi WNW 19.6 mph - 0.00 in Snow Light Snow
4:38 AM 12.2 °F -5.3 °F 6.8 °F 79% 30.20 in 9.0 mi West 18.4 mph - 0.00 in Snow Light Snow
4:56 AM 12.0 °F -6.0 °F 6.1 °F 77% 30.28 in 10.0 mi West 19.6 mph - 0.00 in Snow Light Snow
5:07 AM 10.4 °F -7.2 °F 5.0 °F 79% 30.20 in 10.0 mi West 17.3 mph - 0.00 in   Scattered Clouds
5:25 AM 10.4 °F -6.6 °F 5.0 °F 79% 30.20 in 10.0 mi West 16.1 mph - 0.00 in   Mostly Cloudy
5:32 AM 10.4 °F -6.0 °F 5.0 °F 79% 30.20 in 10.0 mi WNW 15.0 mph - 0.00 in   Mostly Cloudy
6:56 AM 10.0 °F -8.6 °F 3.0 °F 73% 30.30 in 10.0 mi West 19.6 mph 27.6 mph 0.00 in   Mostly Cloudy
7:56 AM 9.1 °F -9.3 °F 1.0 °F 70% 30.31 in 10.0 mi WNW 18.4 mph - 0.00 in   Scattered Clouds
8:56 AM 9.1 °F -10.3 °F 0.1 °F 67% 30.34 in 7.0 mi WNW 20.7 mph 26.5 mph 0.00 in Snow Light Snow
9:03 AM 8.6 °F -11.4 °F -0.4 °F 67% 30.25 in 10.0 mi WNW 21.9 mph 25.3 mph 0.00 in   Mostly Cloudy
9:56 AM 10.0 °F -8.6 °F 0.1 °F 64% 30.35 in 8.0 mi NW 19.6 mph - 0.00 in Snow Light Snow
10:13 AM 8.6 °F -11.0 °F -0.4 °F 67% 30.26 in 2.5 mi WNW 20.7 mph - 0.00 in Snow Light Snow
10:24 AM 10.4 °F -9.1 °F -0.4 °F 62% 30.26 in 2.5 mi NW 21.9 mph - 0.00 in Snow Light Snow
10:48 AM 10.4 °F -8.6 °F -2.2 °F 57% 30.26 in 6.0 mi WNW 20.7 mph - 0.00 in   Haze
10:56 AM 12.0 °F -6.0 °F -0.9 °F 56% 30.35 in 10.0 mi WNW 19.6 mph 26.5 mph 0.00 in   Mostly Cloudy
11:56 AM 11.1 °F -7.7 °F -2.9 °F 53% 30.34 in 10.0 mi WNW 20.7 mph 27.6 mph 0.00 in   Clear
12:56 PM 11.1 °F -8.5 °F -4.9 °F 49% 30.35 in 10.0 mi NW 23.0 mph 27.6 mph N/A   Partly Cloudy
1:56 PM 13.1 °F -4.2 °F -6.0 °F 42% 30.34 in 10.0 mi WNW 18.4 mph 26.5 mph N/A   Partly Cloudy
2:56 PM 13.1 °F -3.7 °F -6.9 °F 41% 30.35 in 10.0 mi WNW 17.3 mph - N/A   Clear
3:56 PM 13.1 °F -2.6 °F -4.9 °F 45% 30.35 in 10.0 mi West 15.0 mph - N/A   Clear
4:56 PM 10.0 °F -8.1 °F -4.9 °F 51% 30.36 in 10.0 mi WNW 18.4 mph - N/A   Clear
5:56 PM 9.1 °F -7.0 °F -4.0 °F 55% 30.37 in 10.0 mi WNW 13.8 mph - N/A   Clear
6:56 PM 8.1 °F -9.6 °F -2.9 °F 61% 30.38 in 10.0 mi West 16.1 mph - N/A   Clear
7:56 PM 7.2 °F -9.6 °F -1.8 °F 67% 30.40 in 10.0 mi West 13.8 mph - N/A   Clear
8:56 PM 6.1 °F -12.2 °F -2.9 °F 67% 30.41 in 10.0 mi West 16.1 mph 20.7 mph N/A   Clear
9:56 PM 5.0 °F -13.6 °F -4.0 °F 66% 30.42 in 10.0 mi West 16.1 mph - N/A   Clear
10:56 PM 5.0 °F -12.3 °F -4.0 °F 66% 30.43 in 10.0 mi West 13.8 mph - N/A   Clear
11:56 PM 5.0 °F -13.0 °F -2.9 °F 70% 30.42 in 10.0 mi WNW 15.0 mph - N/A   Clear